Change the Weather History Date:

Wednesday, June 12, 2013

  Actual Average Record
Temperature  
Mean Temperature 64 °F -  
Max Temperature 74 °F 76 °F 86 °F (1998)
Min Temperature 53 °F 48 °F 35 °F (2014)
Degree Days  
Heating Degree Days 1    
Cooling Degree Days 0    
Growing Degree Days 14 (Base 50)    
Moisture  
Dew Point 55 °F    
Average Humidity 72    
Maximum Humidity 97    
Minimum Humidity 51    
Precipitation  
Precipitation 0.03 in 0.10 in 0.41 in (2011)
Month to date precipitation 1.68 1.25  
Year to date precipitation 7.24 4.95  
Sea Level Pressure  
Sea Level Pressure 30.05 in    
Wind  
Wind Speed 5 mph (ESE)    
Max Wind Speed 9 mph    
Max Gust Speed -    
Visibility 10 miles    
Events Rain    
T = Trace of Precipitation, MM = Missing Value Source: NWS Daily Summary

Daily Weather History Graph

Daily Weather History Graph

Search for Another Location

Airport or City:

Trip Planner

Search our weather history database for the weather conditions in past years. The results will help you decide how hot, cold, wet, or windy it might be!

Date:

Astronomy

Jun. 12, 2013 Rise Set
Actual Time 5:02 AM MDT 9:02 PM MDT
Civil Twilight 4:20 AM MDT 9:43 PM MDT
Nautical Twilight 3:23 AM MDT 10:41 PM MDT
Astronomical Twilight 1:48 AM MDT 12:18 AM MDT
Moon 8:57 AM MDT (6/12) 11:23 PM MDT (6/12)
Length of Visible Light 17h 23m
Length of Day
16h 00m
Waxing Crescent, 14% of the Moon is Illuminated
Jun 12
Waxing Crescent
Jun 16
First Quarter
Jun 23
Full
Jun 29
Last Quarter
Jul 8
New

Hourly Weather History & Observations

Time (MDT) Temp. Dew Point Humidity Pressure Visibility Wind Dir Wind Speed Gust Speed Precip Events Conditions
12:53 AM 57.0 °F 54.0 °F 89% 30.01 in 10.0 mi East 4.6 mph - 0.01 in Rain Light Rain
1:53 AM 55.9 °F 53.1 °F 90% 30.03 in 10.0 mi East 5.8 mph - 0.02 in   Overcast
2:53 AM 55.9 °F 54.0 °F 93% 30.04 in 10.0 mi NNE 3.5 mph - 0.00 in Rain Light Rain
3:53 AM 55.9 °F 54.0 °F 93% 30.06 in 10.0 mi Calm Calm - 0.00 in   Overcast
4:53 AM 54.0 °F 53.1 °F 97% 30.06 in 10.0 mi East 3.5 mph - 0.01 in   Mostly Cloudy
5:53 AM 54.0 °F 53.1 °F 97% 30.08 in 6.0 mi NNE 3.5 mph - N/A   Mostly Cloudy
6:53 AM 57.9 °F 55.0 °F 90% 30.09 in 10.0 mi East 5.8 mph - N/A   Clear
7:53 AM 61.0 °F 55.9 °F 83% 30.09 in 10.0 mi ESE 6.9 mph - N/A   Mostly Cloudy
8:53 AM 64.0 °F 55.0 °F 73% 30.09 in 10.0 mi SE 8.1 mph - N/A   Clear
9:53 AM 66.0 °F 55.0 °F 68% 30.09 in 10.0 mi SSE 6.9 mph - N/A   Clear
10:53 AM 69.1 °F 55.9 °F 63% 30.08 in 10.0 mi SSE 6.9 mph - N/A   Partly Cloudy
11:53 AM 70.0 °F 55.9 °F 61% 30.08 in 10.0 mi South 9.2 mph - N/A   Mostly Cloudy
12:53 PM 70.0 °F 54.0 °F 57% 30.08 in 10.0 mi SSE 8.1 mph - N/A   Mostly Cloudy
1:53 PM 71.1 °F 55.0 °F 57% 30.07 in 10.0 mi SE 5.8 mph - N/A   Overcast
2:53 PM 72.0 °F 55.0 °F 55% 30.05 in 10.0 mi Variable 4.6 mph - N/A   Overcast
3:53 PM 73.0 °F 55.9 °F 55% 30.04 in 10.0 mi SSE 4.6 mph - N/A   Overcast
4:53 PM 73.0 °F 54.0 °F 51% 30.04 in 10.0 mi South 8.1 mph - N/A   Mostly Cloudy
5:53 PM 72.0 °F 54.0 °F 53% 30.03 in 10.0 mi SE 6.9 mph - N/A   Scattered Clouds
6:53 PM 73.0 °F 55.9 °F 55% 30.02 in 10.0 mi SE 4.6 mph - N/A   Clear
7:53 PM 71.1 °F 55.9 °F 59% 30.02 in 10.0 mi SSE 5.8 mph - N/A   Scattered Clouds
8:53 PM 66.9 °F 55.9 °F 68% 30.02 in 10.0 mi ESE 3.5 mph - N/A   Clear
9:53 PM 66.0 °F 55.9 °F 70% 30.04 in 10.0 mi ESE 5.8 mph - N/A   Clear
10:53 PM 64.9 °F 55.0 °F 70% 30.04 in 10.0 mi SE 6.9 mph - N/A   Clear
11:53 PM 63.0 °F 55.0 °F 75% 30.04 in 10.0 mi ESE 9.2 mph - N/A   Clear